Erie, CO

4:25 AM MDT on May 29, 2017 (GMT -0600)
Erie Municipal Airport

Weather History for KEIK - February, 2012

Change the Weather History Date:

Sunday, February 12, 2012

  Actual Average (KBJC) Record (KBJC)
Temperature  
Mean Temperature 13 °F -  
Max Temperature 23 °F 44 °F 70 °F (1990)
Min Temperature 3 °F 24 °F -2 °F (1986)
Degree Days  
Heating Degree Days 52    
Moisture  
Dew Point 11 °F    
Average Humidity 86    
Maximum Humidity 100    
Minimum Humidity 74    
Precipitation  
Precipitation 0.00 in - - ()
Sea Level Pressure  
Sea Level Pressure 29.82 in    
Wind  
Wind Speed 1 mph (NNE)    
Max Wind Speed 8 mph    
Max Gust Speed -    
Visibility 6 miles    
Events      
Averages and records for this station are not official NWS values.
T = Trace of Precipitation, MM = Missing Value Source: NWS Daily Summary

Daily Weather History Graph

Daily Weather History Graph

Search for Another Location

Airport or City:

Trip Planner

Search our weather history database for the weather conditions in past years. The results will help you decide how hot, cold, wet, or windy it might be!

Date:

Astronomy

Feb. 12, 2012 Rise Set
Actual Time 6:57 AM MST 5:32 PM MST
Civil Twilight 6:29 AM MST 6:00 PM MST
Nautical Twilight 5:57 AM MST 6:31 PM MST
Astronomical Twilight 5:26 AM MST 7:03 PM MST
Moon 11:33 PM MST (2/12) 9:17 AM MST (2/12)
Length of Visible Light 11h 30m
Length of Day
10h 34m
Waning Gibbous, 71% of the Moon is Illuminated
Feb 12
Waning Gibbous
Feb 14
Last Quarter
Feb 21
New
Feb 29
First Quarter
Mar 8
Full

Hourly Weather History & Observations

Time (MST) Temp. Windchill Dew Point Humidity Pressure Visibility Wind Dir Wind Speed Gust Speed Precip Events Conditions
12:18 AM 3.2 °F -4.2 °F 1.4 °F 92% 30.09 in 7.0 mi South 3.5 mph - N/A   Unknown
12:38 AM 5.0 °F - 1.4 °F 85% 30.08 in 7.0 mi Calm Calm - N/A   Unknown
12:58 AM 3.2 °F - 1.4 °F 92% 30.07 in 7.0 mi Calm Calm - N/A   Unknown
1:18 AM 3.2 °F - 1.4 °F 92% 30.05 in 7.0 mi Calm Calm - N/A   Unknown
1:38 AM 3.2 °F - 1.4 °F 92% 30.05 in 7.0 mi Calm Calm - N/A   Unknown
1:58 AM 5.0 °F - 3.2 °F 92% 30.04 in 7.0 mi Calm Calm - N/A   Unknown
2:18 AM 3.2 °F - 1.4 °F 92% 30.03 in 7.0 mi Calm Calm - N/A   Unknown
2:38 AM 5.0 °F - 3.2 °F 92% 30.02 in 7.0 mi Calm Calm - N/A   Unknown
2:58 AM 5.0 °F - 1.4 °F 85% 30.00 in 7.0 mi Calm Calm - N/A   Unknown
3:18 AM 3.2 °F - -0.4 °F 85% 29.99 in 7.0 mi Calm Calm - N/A   Unknown
3:38 AM 3.2 °F - 1.4 °F 92% 29.99 in 7.0 mi Calm Calm - N/A   Unknown
3:58 AM 3.2 °F - 1.4 °F 92% 29.98 in 7.0 mi Calm Calm - N/A   Unknown
4:18 AM 5.0 °F - 3.2 °F 92% 29.98 in 7.0 mi Calm Calm - N/A   Unknown
4:38 AM 5.0 °F - 3.2 °F 92% 29.97 in 7.0 mi Calm Calm - N/A   Unknown
4:58 AM 5.0 °F - 3.2 °F 92% 29.96 in 7.0 mi Calm Calm - N/A   Unknown
5:18 AM 5.0 °F - 1.4 °F 85% 29.95 in 7.0 mi Calm Calm - N/A   Unknown
5:38 AM 5.0 °F - 3.2 °F 92% 29.94 in 7.0 mi Calm Calm - N/A   Unknown
5:58 AM 5.0 °F - 3.2 °F 92% 29.93 in 7.0 mi Calm Calm - N/A   Unknown
6:18 AM 5.0 °F - 3.2 °F 92% 29.93 in 7.0 mi Calm Calm - N/A   Unknown
6:24 AM 5.0 °F -2.1 °F 3.2 °F 92% 29.92 in 7.0 mi South 3.5 mph - N/A   Unknown
8:18 AM 8.6 °F - 5.0 °F 85% 29.90 in 5.0 mi Calm Calm - N/A   Mist
8:38 AM 10.4 °F - 8.6 °F 92% 29.89 in 5.0 mi Calm Calm - N/A   Mist
8:58 AM 12.2 °F - 10.4 °F 92% 29.89 in 5.0 mi Calm Calm - N/A   Mist
9:18 AM 12.2 °F - 10.4 °F 92% 29.87 in 5.0 mi Calm Calm - N/A   Mist
9:38 AM 12.2 °F - 12.2 °F 100% 29.87 in 5.0 mi Calm Calm - N/A   Mist
9:58 AM 14.0 °F - 14.0 °F 100% 29.85 in 7.0 mi Calm Calm - N/A   Unknown
10:18 AM 15.8 °F - 14.0 °F 93% 29.85 in 7.0 mi Calm Calm - N/A   Unknown
10:38 AM 17.6 °F - 12.2 °F 79% 29.84 in 7.0 mi Calm Calm - N/A   Unknown
10:58 AM 19.4 °F - 12.2 °F 74% 29.82 in 7.0 mi Calm Calm - N/A   Unknown
11:58 AM 21.2 °F 14.9 °F 14.0 °F 74% 29.77 in 7.0 mi ENE 4.6 mph - N/A   Unknown
12:18 PM 21.2 °F - 14.0 °F 74% 29.77 in 7.0 mi Calm Calm - N/A   Unknown
12:38 PM 21.2 °F - 14.0 °F 74% 29.74 in 7.0 mi Calm Calm - N/A   Unknown
12:58 PM 21.2 °F 13.6 °F 15.8 °F 80% 29.73 in 7.0 mi North 5.8 mph - N/A   Unknown
1:18 PM 23.0 °F 18.4 °F 15.8 °F 74% 29.73 in 5.0 mi ENE 3.5 mph - N/A   Haze
1:38 PM 23.0 °F 18.4 °F 14.0 °F 68% 29.71 in 7.0 mi NE 3.5 mph - N/A   Unknown
1:58 PM 23.0 °F 18.4 °F 15.8 °F 74% 29.71 in 7.0 mi East 3.5 mph - N/A   Unknown
2:18 PM 23.0 °F 17.0 °F 15.8 °F 74% 29.70 in 5.0 mi ENE 4.6 mph - N/A   Haze
2:38 PM 21.2 °F 16.4 °F 15.8 °F 80% 29.70 in 5.0 mi NE 3.5 mph - N/A   Haze
2:58 PM 23.0 °F - 15.8 °F 74% 29.70 in 7.0 mi Calm Calm - N/A   Unknown
3:18 PM 23.0 °F - 15.8 °F 74% 29.70 in 5.0 mi Calm Calm - N/A   Haze
3:58 PM 21.2 °F 14.9 °F 17.6 °F 86% 29.69 in 7.0 mi North 4.6 mph - N/A   Unknown
4:18 PM 21.2 °F 13.6 °F 17.6 °F 86% 29.67 in 5.0 mi North 5.8 mph - N/A   Haze
4:38 PM 21.2 °F 14.9 °F 17.6 °F 86% 29.67 in 5.0 mi NNW 4.6 mph - N/A   Haze
4:58 PM 21.2 °F 11.7 °F 17.6 °F 86% 29.66 in 5.0 mi North 8.1 mph - N/A   Haze
5:18 PM 21.2 °F 16.4 °F 17.6 °F 86% 29.66 in 5.0 mi NNW 3.5 mph - N/A   Mist
5:58 PM 21.2 °F - 15.8 °F 80% 29.67 in 7.0 mi Calm Calm - N/A   Unknown
6:18 PM 19.4 °F - 15.8 °F 86% 29.67 in 7.0 mi Calm Calm - N/A   Unknown
6:38 PM 19.4 °F - 15.8 °F 86% 29.68 in 7.0 mi Calm Calm - N/A   Unknown
6:58 PM 19.4 °F - 15.8 °F 86% 29.68 in 7.0 mi Calm Calm - N/A   Unknown
7:18 PM 21.2 °F 14.9 °F 17.6 °F 86% 29.67 in 7.0 mi ENE 4.6 mph - N/A   Unknown
7:38 PM 21.2 °F - 17.6 °F 86% 29.69 in 7.0 mi Calm Calm - N/A   Unknown
7:58 PM 21.2 °F - 17.6 °F 86% 29.69 in 7.0 mi Calm Calm - N/A   Unknown
8:18 PM 21.2 °F - 17.6 °F 86% 29.68 in 7.0 mi Calm Calm - N/A   Unknown
8:38 PM 21.2 °F - 17.6 °F 86% 29.68 in 7.0 mi Calm Calm - N/A   Unknown
8:58 PM 21.2 °F - 17.6 °F 86% 29.68 in 7.0 mi Calm Calm - N/A   Unknown
9:18 PM 21.2 °F - 17.6 °F 86% 29.67 in 7.0 mi Calm Calm - N/A   Unknown
9:38 PM 21.2 °F - 17.6 °F 86% 29.67 in 7.0 mi Calm Calm - N/A   Unknown
9:58 PM 21.2 °F - 17.6 °F 86% 29.67 in 7.0 mi Calm Calm - N/A   Unknown
10:18 PM 21.2 °F - 17.6 °F 86% 29.66 in 7.0 mi Calm Calm - N/A   Unknown
10:38 PM 21.2 °F - 17.6 °F 86% 29.65 in 7.0 mi Calm Calm - N/A   Unknown
10:58 PM 21.2 °F - 17.6 °F 86% 29.65 in 7.0 mi Calm Calm - N/A   Unknown
11:18 PM 23.0 °F - 17.6 °F 80% 29.65 in 7.0 mi Calm Calm - N/A   Unknown
11:38 PM 21.2 °F - 19.4 °F 93% 29.65 in 5.0 mi Calm Calm - N/A   Mist
11:58 PM 23.0 °F - 19.4 °F 86% 29.64 in 7.0 mi Calm Calm - N/A   Unknown